EW2727 Weather Reports


time (UTC)temp
C
wind
direction
speed
KPH
gust
KPH
rain 1hr
cm
rain 24hr
cm
rain mn
cm
humidity
%
barometer
mb
20260505070028 11 294 0.0 0.0 0.00 0.00 0.00 76 1011.3
20260505064526 11 269 0.0 0.0 0.00 0.00 0.00 76 1011.4
20260505063033 11 269 0.0 0.0 0.00 0.00 0.00 75 1011.3
20260505061529 11 279 0.0 0.0 0.00 0.00 0.00 73 1011.3
20260505060018 12 267 0.0 0.0 0.00 0.00 0.00 73 1011.3
20260505054522 12 286 0.0 0.0 0.00 0.00 0.00 72 1011.4
20260505053012 12 287 0.0 0.0 0.00 0.00 0.00 71 1011.4
20260505051511 12 281 0.0 0.0 0.00 0.00 0.00 70 1011.3
20260505041534 13 282 0.0 0.0 0.00 0.00 0.00 67 1011.4
20260505040032 13 294 0.0 0.0 0.00 0.00 0.00 66 1011.5
20260505034529 13 269 0.0 0.0 0.00 0.00 0.00 64 1011.3
20260505033035 13 317 0.0 0.0 0.00 0.00 0.00 63 1011.3
20260505031528 13 254 0.0 0.0 0.00 0.00 0.00 61 1011.4
20260505030025 13 257 0.0 0.0 0.00 0.00 0.00 60 1011.3
20260505024547 14 274 0.0 0.0 0.00 0.00 0.00 58 1011.4
20260505023032 14 263 0.0 0.0 0.00 0.00 0.00 57 1011.5
20260505021541 14 292 0.0 0.0 0.00 0.00 0.00 55 1011.4
20260505020019 15 262 0.0 0.0 0.00 0.00 0.00 53 1011.4
20260505014524 15 273 0.0 0.0 0.00 0.00 0.00 52 1011.4
20260505013019 15 255 0.0 0.0 0.00 0.00 0.00 51 1011.2
20260505011521 15 267 0.0 0.0 0.00 0.00 0.00 51 1010.9
20260505010016 15 264 0.0 0.0 0.00 0.00 0.00 51 1010.6
20260505004522 16 229 0.0 0.0 0.00 0.00 0.00 50 1010.5
20260505003015 16 282 0.0 0.0 0.00 0.00 0.00 48 1009.9
20260505001515 17 241 0.0 0.0 0.00 0.00 0.00 46 1009.6
20260505000019 17 242 0.0 0.0 0.00 0.00 0.00 43 1009.2
20260505000015 17 360 0.0 0.0 0.00 0.00 0.00 43 1009.2
20260504234543 18 254 0.0 0.0 0.00 0.00 0.00 43 1009.2
20260504233055 18 262 0.0 0.0 0.00 0.00 0.00 43 1008.8
20260504231512 18 290 0.0 0.0 0.00 0.00 0.00 41 1008.5
20260504230012 19 253 0.0 0.0 0.00 0.00 0.00 40 1008.1
20260504224510 19 248 0.0 0.0 0.00 0.00 0.00 39 1007.9
20260504223008 20 269 0.0 0.0 0.00 0.00 0.00 37 1007.8
20260504221508 20 281 0.0 0.0 0.00 0.00 0.00 35 1007.6
20260504220007 22 253 0.0 0.0 0.00 0.00 0.00 31 1007.5
20260504214536 21 319 0.0 0.0 0.00 0.00 0.00 29 1007.6
20260504213034 22 300 0.0 0.0 0.00 0.00 0.00 28 1007.5
20260504211504 21 321 0.0 0.0 0.00 0.00 0.00 29 1007.4
20260504210002 22 344 0.0 0.0 0.00 0.00 0.00 28 1007.5
20260504204546 21 277 0.0 0.0 0.00 0.00 0.00 27 1007.5
20260504203032 22 288 0.0 0.0 0.00 0.00 0.00 27 1007.5
20260504201526 21 360 0.0 0.0 0.00 0.00 0.00 26 1007.6
20260504200025 21 264 0.0 0.0 0.00 0.00 0.00 26 1007.6
20260504194524 21 277 0.0 0.0 0.00 0.00 0.00 27 1007.6
20260504193024 21 290 0.0 0.0 0.00 0.00 0.00 25 1007.7
20260504191520 21 278 0.0 0.0 0.00 0.00 0.00 26 1007.6
20260504190019 21 305 0.0 0.0 0.00 0.00 0.00 26 1007.7
20260504184523 21 277 0.0 0.0 0.00 0.00 0.00 26 1007.8
20260504183014 21 321 0.0 0.0 0.00 0.00 0.00 27 1007.9
20260504181509 20 335 0.0 0.0 0.00 0.00 0.00 27 1008.3
20260504180009 20 261 0.0 0.0 0.00 0.00 0.00 28 1008.5
20260504174507 20 293 0.0 0.0 0.00 0.00 0.00 28 1008.6
20260504173007 20 274 0.0 0.0 0.00 0.00 0.00 29 1008.4
20260504171501 19 338 0.0 0.0 0.00 0.00 0.00 29 1008.7
20260504081538 8 309 0.0 0.0 0.00 0.03 0.00 49 1011.4
20260504080122 8 304 0.0 0.0 0.00 0.03 0.00 48 1011.4